Regional Weather Roundup
Issued by NWS State College, PA

Home | Current Version | Previous Version | Text Only | Print | Product List | Glossary Off
Versions: 1 2 3 4 5 6 7 8 9 10 11 12 13 14 15 16 17 18 19 20 21 22 23 24 25 26 27 28 29 30 31 32 33 34 35 36 37 38 39 40 41 42 43 44 45 46 47 48 49 50

000
ASUS41 KCTP 260003
RWRCTP
REGIONAL WEATHER ROUNDUP
NATIONAL WEATHER SERVICE STATE COLLEGE PA
800 PM EDT MON SEP 25 2017

Note: "fair" indicates few or no clouds below 12,000 feet with no
significant weather and/or obstructions to visibility.

* = STATION THAT DOES NOT REPORT PRECIPITATION /E.G. RAIN...SNOW...ETC/
    THUNDER OR FOG.

PAZ002>004-007>009-013>016-020>023-029>032-260100-
WESTERN PENNSYLVANIA

CITY           SKY/WX    TMP DP  RH WIND       PRES   REMARKS
ERIE           MOCLDY    78  67  68 E5        30.01S
MEADVILLE      PTCLDY    79  64  60 CALM      30.05S
FRANKLIN*      PTCLDY    77  66  69 E3        30.07S
NEW CASTLE     FAIR      73  65  75 CALM      30.03F
BEAVER COUNTY  CLEAR     79  61  53 CALM      30.04S
BUTLER*        CLEAR     74  66  76 CALM      30.05R
PITTSBURGH INT MOCLDY    80  63  55 CALM      30.03S
PITTSBURGH     CLEAR     82  61  48 SW3       30.03S
INDIANA*       CLEAR     73  70  88 CALM      30.08R
LATROBE        CLEAR     75  68  78 CALM      30.05S
WASHINGTON CO* CLEAR     70  64  83 CALM      30.04S
$$

PAZ004>006-010>012-017>019-024>028-033>037-041-042-045-046-049>053-260100-
CENTRAL PENNSYLVANIA

CITY           SKY/WX    TMP DP  RH WIND       PRES   REMARKS
BRADFORD       CLEAR     70  66  87 CALM      30.10S
DUBOIS         CLEAR     75  64  68 CALM      30.07S
CLEARFIELD     PTCLDY    77  68  73 N5        30.07R
JOHNSTOWN      CLEAR     75  65  70 CALM      30.10S
ALTOONA        CLEAR     77  67  71 E3        30.07S
STATE COLLEGE  CLEAR     79  66  65 CALM      30.05S
WILLIAMSPORT   MOCLDY    75  70  84 CALM      30.00R
SELINSGROVE    PTCLDY    73  72  96 CALM      30.01S
FT INDIANTOWN  MOCLDY    75  71  88 CALM      29.99F
CAPITAL CITY   MOCLDY    79  69  71 CALM      30.00S
HARRISBURG     MOCLDY    77  74  90 CALM      30.00R
YORK           PTCLDY    73  71  93 CALM      30.00F
$$

PAZ038>040-043-044-047-048-054-055-060>062-067>071-260100-
EASTERN PENNSYLVANIA

CITY           SKY/WX    TMP DP  RH WIND       PRES   REMARKS
SCRANTON       CLEAR     80  66  62 CALM      30.05R
MOUNT POCONO   CLEAR     68  68 100 CALM      30.11R
ALLENTOWN      PTCLDY    84  67  56 SE10      30.02R
QUAKERTOWN*    PTCLDY    81  68  65 E5        30.04S
READING        PTCLDY    81  71  71 E3        30.00R
LANCASTER      MOCLDY    80  71  74 CALM      30.01R
COATESVILLE    PTCLDY    79  70  73 SE3       30.04S
POTTSTOWN      PTCLDY    80  67  64 E3        30.04R
BLUE BELL      PTCLDY    77  66  69 E5        30.04R
DOYLESTOWN     PTCLDY    78  65  63 SE3       30.03R
WILLOW GROVE   NOT AVBL
NORTH PHILA    PTCLDY    79  65  62 SE8       30.04R
PHILADELPHIA   MOCLDY    78  65  63 SE8       30.02R
$$



USA.gov is the U.S. government's official web portal to all federal, state and local government web resources and services.